Location: Dugenta
(41.1333°N, 14.4500°E)
Time: 14:27:50
(UTC+00:00)

Cosmos 44 Rocket - Pass Details

Date: 03 March 2021
Orbit: 636 x 754 km, 65.1° (Epoch: 13 April)

Event Time Altitude Azimuth Distance (km) Brightness Sun altitude
Rises 18:22:21 0° 323° (NW) 3,211 7.4 -17.1°
Reaches altitude 10° 18:24:47 10° 320° (NW) 2,283 6.6 -17.6°
Maximum altitude 18:29:54 55° 243° (WSW) 895 4.1 -18.5°
Drops below altitude 10° 18:34:55 10° 166° (SSE) 2,242 5.7 -19.5°
Enters shadow 18:35:27 - 165° (SSE) 2,443 5.9 -19.6°
